Location: Doschendorf
(50.0069°N, 11.0602°E)
Time: 21:32:45
(UTC+00:00)

Cosmos 1689 Rocket - Pass Details

Date: 17 November 2019
Orbit: 374 x 389 km, 97.5° (Epoch: 12 December)

Event Time Altitude Azimuth Distance (km) Brightness Sun altitude
Rises 16:32:18 0° 3° (N) 2,292 5.8 -10.1°
Reaches altitude 10° 16:34:27 10° 350° (N) 1,433 4.9 -10.4°
Maximum altitude 16:37:02 25° 292° (WNW) 830 4.4 -10.8°
Drops below altitude 10° 16:39:37 10° 234° (SW) 1,426 6.2 -11.2°
Sets 16:41:46 0° 221° (SW) 2,277 7.0 -11.5°
